Regional Weather Roundup
Issued by NWS Charleston, SC

Current Version | Previous Version | Text Only | Print | Product List | Glossary Off
Versions: 1 2 3 4 5 6 7 8 9 10 11 12 13 14 15 16 17 18 19 20 21 22 23 24 25 26 27 28 29 30 31 32 33 34 35 36 37 38 39 40 41 42 43 44 45 46 47 48 49 50
000 ASUS42 KCHS 200125 RWRCHS REGIONAL WEATHER ROUNDUP NATIONAL WEATHER SERVICE CHARLESTON SC 900 PM EDT FRI SEP 19 2014 NOTE: "FAIR" INDICATES FEW OR NO CLOUDS BELOW 12,000 FEET WITH NO SIGNIFICANT WEATHER AND/OR OBSTRUCTIONS TO VISIBILITY. NOT ALL STATIONS ARE QUALITY CONTROLLED BY THE NATIONAL WEATHER SERVICE. USE DATA WITH CAUTION...ESPECIALLY DEWPOINT OBSERVATIONS. SCZ027-030-031-034>040-042>050-200200- ...SOUTH CAROLINA... CITY SKY/WX TMP DP RH WIND PRES REMARKS N CHARLESTON CLOUDY 71 67 87 N6 30.08F WATERFRONT PRK N/A 73 N/A N/A NE14 N/A FORT JOHNSON NOT AVBL MOUNT PLEASANT FAIR 70 70 100 CALM 30.09S FOG JOHNS ISLAND PTCLDY 73 73 100 NE9 30.08S PINOPOLIS N/A 75 70 83 E13 30.03R MONCKS CORNER N/A 73 72 94 NE3 30.11R SUMMERVILLE FAIR 70 70 100 NE3 30.10S BEAUFORT MCAS CLOUDY 75 69 81 NW7 30.07R BEAUFORT ARPT CLOUDY 72 70 94 E5 30.07R HILTON HEAD IS RAIN 73 70 88 NE14G31 30.08R GEORGETOWN NOT AVBL WALTERBORO MOCLDY 72 N/A N/A NE6 30.10S ORANGEBURG PTCLDY 71 66 84 NE7 30.11S BARNWELL FAIR 70 66 88 N5 30.12S AIKEN FAIR 68 68 100 CALM 30.16F MANNING FAIR 72 N/A N/A NE5 30.13R KINGSTREE NOT AVBL COLUMBIA PTCLDY 73 65 75 E5 30.14R SUMTER PTCLDY 67 64 87 NE6 30.13R FLORENCE CLEAR 71 65 81 NE8 30.15R MYRTLE BEACH PTCLDY 75 64 69 NE14G22 30.12R N MYRTLE BEACH CLOUDY 73 65 75 NE10 30.13R $$ GAZ063-065-086>088-099>101-113>116-118-119-134-136>141-150-200200- ...GEORGIA... CITY SKY/WX TMP DP RH WIND PRES REMARKS SAVANNAH ARPT CLOUDY 74 68 81 NE10 30.06S HUNTER AAF LGT RAIN 72 70 94 E8 30.04S FOG FORT STEWART CLOUDY 73 68 83 NE5 30.04S STATESBORO NOT AVBL SYLVANIA MOCLDY 73 72 94 NE6 30.09S CLAXTON FAIR 73 72 94 NE3 30.07R THOMSON PTCLDY 72 70 92 E6 30.16S AUGUSTA-BUSH MOCLDY 69 67 93 NE6 30.11R AUGUSTA-DANIEL MOCLDY 71 67 87 NE8 30.13R SWAINSBORO FAIR 72 72 100 E3 30.09S VIDALIA CLOUDY 70 70 100 NE7 30.07S ALMA CLOUDY 73 69 87 CALM 30.03S WAYCROSS CLOUDY 75 73 95 E3 30.03S JESUP LGT RAIN 73 72 94 E6 30.05R BRUNSWICK CLOUDY 73 70 88 NW6 30.03S SAINT SIMONS CLOUDY 79 69 71 E10 30.01F $$ SCZ027-028-034-036>038-045-046-048>050-GAZ119-141-200200- ...LAKE AND SUPPLEMENTAL COASTAL OBSERVATIONS... STATION/POSITION TIME TEMP WIND PRES WAVE SWELL AIR SEA DIR/SP/G HT/PER HT/PER/DIR (UTC) (F) (DEG/KT/KT) (MB) (FT/S) (FT/S/D) UPR LAKE MARION NOT AVBL WINYAH BAY 0000 79 60/ 16 1019.0S LAKE MURRAY 0100 74 90/ 7/ 10 1020.0S ACE BASIN NERRS 0000 72 30/ 3 1018.0S FORT PULASKI 0100 80 70/ 21/ 24 1017.6S SAPELO ISLAND 0000 77 80/ 10 1017.0S $$ ANZ835-935-AMZ111-154-330-350-352-354-374-450-454-472-200200- ...C-MAN AND BUOY OBSERVATIONS... STATION/POSITION TIME TEMP WIND PRES WAVE SWELL AIR SEA DIR/SP/G HT/PER HT/PER/DIR (UTC) (F) (DEG/KT/KT) (MB) (FT/S) (FT/S/D) FOLLY BEACH CMAN 0100 78 80/ 17/ 20 1018.7F BUOY 41004 0100 79 82 60/ 17/ 19 1016.8F 6/ 7 BUOY 41008 0100 80 84 90/ 17/ 21 1016.0R 5/ 6 2/ 50/ 9 5E ST. MARYS GA 0100 84 N/A 3/ 4 FRYING PAN BUOY NOT AVBL BUOY 41025 0100 76 50/ 17/ 19 1021.5R 6/ 6 2/ 30/14 CAPE LOOKOUT NC 0100 75 40/ 23/ 26 1021.9R BUOY 41002 NOT AVBL BUOY 41010 0100 83 85 60/ 12/ 16 1013.9F 3/ 9 2/ 70/ 9 BUOY 41012 NOT AVBL ST AUGUSTINE FL 0100 80 80/ 13/ 14 1015.9R CAPERS NEARSHORE 0000 79 100/ 14/ 17 N/A FRIPP NEARSHORE NOT AVBL $$

USA.gov is the U.S. government's official web portal to all federal, state and local government web resources and services.